2017-008S

Last updated on Tue Feb 28 2017 00:15:03 GMT+0000 (Coordinated Universal Time)

1 41964U 17008S 17058.70145670 .00001614 00000-0 75124-4 0 9996 2 41964 97.5100 120.3024 0008215 208.3443 151.7355 15.21378802 1702
UTC large
Height (km)
Speed (km/s)
/
Latitude / Longitude
Inclination (degrees)
Orbital Period (minutes)
Azimuth
Elevation
Range (km)
Doppler Factor

Next 0 passes for location: London (51.5072 / 0.1276)

Sorry there are no passes over London.